| time (UTC) | temp F | wind direction | speed MPH | gust MPH | rain 1hr in | rain 24hr in | rain mn in | humidity % | barometer mb |
| 20260505051331 | 45 | 207 | 0.0 | 0.0 | 0.00 | 0.00 | 0.00 | 99 | 1013.9 |
| 20260505050829 | 45 | 207 | 0.0 | 0.0 | 0.00 | 0.00 | 0.00 | 99 | 1013.8 |
| 20260505050328 | 45 | 207 | 0.0 | 0.0 | 0.00 | 0.00 | 0.00 | 99 | 1013.7 |
| 20260505041757 | 47 | 207 | 0.0 | 0.0 | 0.00 | 0.00 | 0.00 | 99 | 1013.8 |
| 20260505041255 | 47 | 207 | 0.0 | 0.0 | 0.00 | 0.00 | 0.00 | 99 | 1013.8 |
| 20260505040752 | 47 | 207 | 0.0 | 0.0 | 0.00 | 0.00 | 0.00 | 99 | 1013.9 |
| 20260505040249 | 47 | 207 | 0.0 | 0.0 | 0.00 | 0.00 | 0.00 | 99 | 1013.8 |
| 20260505035746 | 46 | 207 | 0.0 | 0.0 | 0.00 | 0.00 | 0.00 | 99 | 1013.5 |
| 20260505035242 | 46 | 207 | 0.0 | 0.0 | 0.00 | 0.00 | 0.00 | 99 | 1013.6 |
| 20260505034739 | 47 | 207 | 0.0 | 0.0 | 0.00 | 0.00 | 0.00 | 99 | 1013.6 |
| 20260505034236 | 47 | 207 | 0.0 | 0.0 | 0.00 | 0.00 | 0.00 | 99 | 1013.9 |
| 20260505033733 | 47 | 207 | 0.0 | 0.0 | 0.00 | 0.00 | 0.00 | 99 | 1013.7 |
| 20260505033230 | 47 | 207 | 0.0 | 0.0 | 0.00 | 0.00 | 0.00 | 99 | 1013.7 |
| 20260505032728 | 47 | 207 | 0.0 | 0.0 | 0.00 | 0.00 | 0.00 | 99 | 1013.8 |
| 20260505032224 | 48 | 207 | 0.0 | 0.0 | 0.00 | 0.00 | 0.00 | 99 | 1013.5 |
| 20260505031722 | 48 | 207 | 0.0 | 0.0 | 0.00 | 0.00 | 0.00 | 99 | 1013.5 |
| 20260505031218 | 48 | 207 | 0.0 | 0.0 | 0.00 | 0.00 | 0.00 | 99 | 1013.6 |
| 20260505030715 | 48 | 207 | 0.0 | 0.0 | 0.00 | 0.00 | 0.00 | 99 | 1013.5 |
| 20260505030211 | 48 | 207 | 0.0 | 0.0 | 0.00 | 0.00 | 0.00 | 99 | 1013.4 |
| 20260505025707 | 48 | 207 | 0.0 | 0.0 | 0.00 | 0.00 | 0.00 | 99 | 1013.4 |
| 20260505025205 | 49 | 207 | 0.0 | 0.0 | 0.00 | 0.00 | 0.00 | 99 | 1013.6 |
| 20260505024703 | 48 | 207 | 0.0 | 0.0 | 0.00 | 0.00 | 0.00 | 99 | 1013.7 |
| 20260505024200 | 48 | 207 | 0.0 | 0.0 | 0.00 | 0.00 | 0.00 | 99 | 1013.8 |
| 20260505023657 | 49 | 207 | 0.0 | 0.0 | 0.00 | 0.00 | 0.00 | 99 | 1013.8 |
| 20260505023154 | 49 | 207 | 0.0 | 0.0 | 0.00 | 0.00 | 0.00 | 99 | 1013.5 |
| 20260505022652 | 50 | 207 | 0.0 | 0.0 | 0.00 | 0.00 | 0.00 | 99 | 1013.6 |
| 20260505022149 | 50 | 207 | 0.0 | 0.0 | 0.00 | 0.00 | 0.00 | 99 | 1013.6 |
| 20260505021645 | 50 | 207 | 0.0 | 0.0 | 0.00 | 0.00 | 0.00 | 98 | 1013.6 |
| 20260505021142 | 50 | 207 | 0.0 | 0.0 | 0.00 | 0.00 | 0.00 | 98 | 1013.6 |
| 20260505020637 | 51 | 207 | 0.0 | 0.0 | 0.00 | 0.00 | 0.00 | 98 | 1013.5 |
| 20260505020134 | 51 | 207 | 0.0 | 0.0 | 0.00 | 0.00 | 0.00 | 98 | 1013.7 |
| 20260505015631 | 51 | 207 | 0.0 | 0.0 | 0.00 | 0.00 | 0.00 | 98 | 1013.5 |
| 20260505015128 | 51 | 207 | 1.0 | 2.0 | 0.00 | 0.00 | 0.00 | 98 | 1013.6 |
| 20260505014624 | 51 | 207 | 0.0 | 0.0 | 0.00 | 0.00 | 0.00 | 98 | 1013.5 |
| 20260505014121 | 51 | 207 | 0.0 | 0.0 | 0.00 | 0.00 | 0.00 | 97 | 1013.5 |
| 20260505013619 | 51 | 207 | 0.0 | 0.0 | 0.00 | 0.00 | 0.00 | 98 | 1013.4 |
| 20260505013116 | 51 | 207 | 0.0 | 0.0 | 0.00 | 0.00 | 0.00 | 97 | 1013.4 |
| 20260505012614 | 51 | 207 | 0.0 | 0.0 | 0.00 | 0.00 | 0.00 | 97 | 1013.4 |
| 20260505012111 | 52 | 207 | 0.0 | 0.0 | 0.00 | 0.00 | 0.00 | 96 | 1013.5 |
| 20260505011606 | 52 | 207 | 0.0 | 0.0 | 0.00 | 0.00 | 0.00 | 96 | 1013.3 |
| 20260505011104 | 52 | 207 | 0.0 | 0.0 | 0.00 | 0.00 | 0.00 | 95 | 1013.3 |
| 20260505010605 | 52 | 207 | 0.0 | 0.0 | 0.00 | 0.00 | 0.00 | 95 | 1013.2 |
| 20260505005557 | 53 | 207 | 0.0 | 0.0 | 0.00 | 0.00 | 0.00 | 93 | 1013.3 |
| 20260505005055 | 53 | 207 | 0.0 | 0.0 | 0.00 | 0.00 | 0.00 | 93 | 1013.2 |
| 20260505004552 | 53 | 207 | 0.0 | 0.0 | 0.00 | 0.00 | 0.00 | 92 | 1013.3 |
| 20260505004049 | 54 | 207 | 0.0 | 0.0 | 0.00 | 0.00 | 0.00 | 92 | 1013.2 |
| 20260505003546 | 54 | 207 | 0.0 | 0.0 | 0.00 | 0.00 | 0.00 | 90 | 1013.0 |
| 20260505003044 | 55 | 207 | 0.0 | 0.0 | 0.00 | 0.00 | 0.00 | 89 | 1013.1 |
| 20260505002544 | 55 | 207 | 0.0 | 0.0 | 0.00 | 0.00 | 0.00 | 89 | 1012.9 |
| 20260505002043 | 55 | 207 | 0.0 | 0.0 | 0.00 | 0.00 | 0.00 | 88 | 1013.0 |
| 20260505001540 | 56 | 207 | 0.0 | 0.0 | 0.00 | 0.00 | 0.00 | 86 | 1012.9 |
| 20260505001037 | 56 | 207 | 0.0 | 0.0 | 0.00 | 0.00 | 0.00 | 85 | 1012.8 |
| 20260505000535 | 56 | 207 | 0.0 | 0.0 | 0.00 | 0.00 | 0.00 | 84 | 1012.8 |
| 20260505000032 | 57 | 207 | 0.0 | 0.0 | 0.00 | 0.00 | 0.00 | 84 | 1012.8 |
| 20260504235529 | 58 | 207 | 0.0 | 0.0 | 0.00 | 0.00 | 0.00 | 82 | 1012.7 |
| 20260504235025 | 58 | 207 | 0.0 | 0.0 | 0.00 | 0.00 | 0.00 | 80 | 1012.7 |
| 20260504234522 | 59 | 207 | 0.0 | 0.0 | 0.00 | 0.00 | 0.00 | 80 | 1012.6 |
| 20260504234019 | 59 | 207 | 0.0 | 0.0 | 0.00 | 0.00 | 0.00 | 79 | 1012.6 |
| 20260504233514 | 60 | 207 | 1.0 | 1.0 | 0.00 | 0.00 | 0.00 | 75 | 1012.6 |
| 20260504233012 | 60 | 207 | 0.0 | 0.0 | 0.00 | 0.00 | 0.00 | 75 | 1012.7 |
| 20260504232509 | 60 | 207 | 2.0 | 2.0 | 0.00 | 0.00 | 0.00 | 73 | 1012.6 |
| 20260504232006 | 60 | 207 | 2.0 | 2.0 | 0.00 | 0.00 | 0.00 | 75 | 1012.5 |
| 20260504231502 | 60 | 207 | 2.0 | 2.0 | 0.00 | 0.00 | 0.00 | 75 | 1012.6 |
| 20260504230959 | 60 | 207 | 0.0 | 1.0 | 0.00 | 0.00 | 0.00 | 76 | 1012.7 |
| 20260504230455 | 60 | 207 | 1.0 | 1.0 | 0.00 | 0.00 | 0.00 | 74 | 1012.6 |
| 20260504225954 | 60 | 207 | 1.0 | 1.0 | 0.00 | 0.00 | 0.00 | 74 | 1012.6 |
| 20260504225451 | 61 | 207 | 2.0 | 3.0 | 0.00 | 0.00 | 0.00 | 75 | 1012.8 |
| 20260504224948 | 61 | 207 | 2.0 | 2.0 | 0.00 | 0.00 | 0.00 | 73 | 1012.8 |
| 20260504224444 | 62 | 207 | 3.0 | 3.0 | 0.00 | 0.00 | 0.00 | 71 | 1012.8 |
| 20260504223941 | 63 | 207 | 2.0 | 2.0 | 0.00 | 0.00 | 0.00 | 71 | 1013.0 |
| 20260504223437 | 62 | 207 | 1.0 | 1.0 | 0.00 | 0.00 | 0.00 | 72 | 1012.8 |
| 20260504222933 | 62 | 207 | 1.0 | 1.0 | 0.00 | 0.00 | 0.00 | 73 | 1012.9 |
| 20260504222431 | 63 | 207 | 3.0 | 3.0 | 0.00 | 0.00 | 0.00 | 72 | 1012.8 |
| 20260504221929 | 63 | 207 | 2.0 | 2.0 | 0.00 | 0.00 | 0.00 | 70 | 1013.0 |
| 20260504221425 | 64 | 207 | 3.0 | 3.0 | 0.00 | 0.00 | 0.00 | 69 | 1013.1 |
| 20260504220922 | 63 | 207 | 2.0 | 3.0 | 0.00 | 0.00 | 0.00 | 70 | 1013.1 |
| 20260504220419 | 62 | 207 | 2.0 | 3.0 | 0.00 | 0.00 | 0.00 | 68 | 1013.2 |
| 20260504215916 | 62 | 207 | 2.0 | 2.0 | 0.00 | 0.00 | 0.00 | 68 | 1013.1 |
| 20260504215413 | 61 | 207 | 1.0 | 1.0 | 0.00 | 0.00 | 0.00 | 72 | 1013.2 |
| 20260504214909 | 60 | 207 | 2.0 | 2.0 | 0.00 | 0.00 | 0.00 | 72 | 1013.3 |
| 20260504214406 | 60 | 207 | 1.0 | 2.0 | 0.00 | 0.00 | 0.00 | 74 | 1013.3 |
| 20260504213903 | 60 | 207 | 0.0 | 0.0 | 0.00 | 0.00 | 0.00 | 73 | 1013.4 |
| 20260504213358 | 61 | 207 | 0.0 | 0.0 | 0.00 | 0.00 | 0.00 | 70 | 1013.3 |
| 20260504212856 | 60 | 207 | 0.0 | 1.0 | 0.00 | 0.00 | 0.00 | 72 | 1013.2 |
| 20260504212351 | 60 | 207 | 0.0 | 0.0 | 0.00 | 0.00 | 0.00 | 72 | 1013.0 |
| 20260504211849 | 60 | 207 | 0.0 | 1.0 | 0.00 | 0.00 | 0.00 | 74 | 1013.1 |
| 20260504211345 | 60 | 207 | 0.0 | 0.0 | 0.00 | 0.00 | 0.00 | 73 | 1013.1 |
| 20260504210843 | 60 | 207 | 1.0 | 1.0 | 0.00 | 0.00 | 0.00 | 74 | 1013.0 |
| 20260504210340 | 60 | 207 | 1.0 | 1.0 | 0.00 | 0.00 | 0.00 | 71 | 1012.9 |
| 20260504205837 | 62 | 207 | 6.0 | 7.0 | 0.00 | 0.00 | 0.00 | 67 | 1013.5 |
| 20260504205335 | 65 | 207 | 1.0 | 1.0 | 0.00 | 0.00 | 0.00 | 60 | 1013.7 |
| 20260504204833 | 69 | 207 | 4.0 | 6.0 | 0.00 | 0.00 | 0.00 | 46 | 1013.2 |
| 20260504204331 | 69 | 207 | 3.0 | 4.0 | 0.00 | 0.00 | 0.00 | 43 | 1012.5 |
| 20260504203830 | 69 | 207 | 1.0 | 2.0 | 0.00 | 0.00 | 0.00 | 43 | 1012.4 |
| 20260504203327 | 69 | 207 | 0.0 | 1.0 | 0.00 | 0.00 | 0.00 | 43 | 1012.1 |
| 20260504202822 | 70 | 207 | 2.0 | 3.0 | 0.00 | 0.00 | 0.00 | 42 | 1012.2 |
| 20260504202320 | 70 | 207 | 2.0 | 2.0 | 0.00 | 0.00 | 0.00 | 42 | 1012.2 |
| 20260504201816 | 72 | 207 | 4.0 | 6.0 | 0.00 | 0.00 | 0.00 | 41 | 1012.1 |
| 20260504201314 | 73 | 208 | 0.0 | 0.0 | 0.00 | 0.00 | 0.00 | 39 | 1011.9 |
| 20260504200811 | 74 | 207 | 2.0 | 2.0 | 0.00 | 0.00 | 0.00 | 41 | 1012.2 |
| 20260504200307 | 73 | 208 | 1.0 | 2.0 | 0.00 | 0.00 | 0.00 | 42 | 1012.0 |
| 20260504195803 | 71 | 207 | 2.0 | 3.0 | 0.00 | 0.00 | 0.00 | 40 | 1012.1 |
| 20260504195259 | 71 | 207 | 3.0 | 6.0 | 0.00 | 0.00 | 0.00 | 42 | 1012.2 |
| 20260504194756 | 69 | 207 | 4.0 | 4.0 | 0.00 | 0.00 | 0.00 | 41 | 1012.2 |
| 20260504194253 | 69 | 207 | 1.0 | 2.0 | 0.00 | 0.00 | 0.00 | 43 | 1012.2 |
| 20260504193749 | 69 | 207 | 4.0 | 6.0 | 0.00 | 0.00 | 0.00 | 43 | 1012.4 |
| 20260504193247 | 70 | 207 | 3.0 | 3.0 | 0.00 | 0.00 | 0.00 | 42 | 1012.3 |
| 20260504192745 | 70 | 207 | 0.0 | 0.0 | 0.00 | 0.00 | 0.00 | 43 | 1012.2 |
| 20260504192243 | 72 | 207 | 3.0 | 3.0 | 0.00 | 0.00 | 0.00 | 41 | 1012.3 |
| 20260504191741 | 72 | 208 | 2.0 | 3.0 | 0.00 | 0.00 | 0.00 | 42 | 1012.5 |
| 20260504191238 | 71 | 207 | 4.0 | 6.0 | 0.00 | 0.00 | 0.00 | 42 | 1012.4 |
| 20260504190733 | 71 | 208 | 3.0 | 4.0 | 0.00 | 0.00 | 0.00 | 45 | 1012.3 |
| 20260504190230 | 69 | 207 | 4.0 | 4.0 | 0.00 | 0.00 | 0.00 | 43 | 1012.6 |
| 20260504185726 | 70 | 207 | 2.0 | 3.0 | 0.00 | 0.00 | 0.00 | 44 | 1012.5 |
| 20260504185223 | 70 | 207 | 2.0 | 3.0 | 0.00 | 0.00 | 0.00 | 43 | 1012.8 |
| 20260504184719 | 69 | 208 | 0.0 | 0.0 | 0.00 | 0.00 | 0.00 | 46 | 1012.7 |
| 20260504184215 | 70 | 208 | 1.0 | 2.0 | 0.00 | 0.00 | 0.00 | 45 | 1012.7 |
| 20260504183711 | 68 | 207 | 2.0 | 2.0 | 0.00 | 0.00 | 0.00 | 44 | 1012.9 |
| 20260504183208 | 67 | 207 | 3.0 | 4.0 | 0.00 | 0.00 | 0.00 | 46 | 1013.2 |
| 20260504182706 | 67 | 207 | 3.0 | 3.0 | 0.00 | 0.00 | 0.00 | 46 | 1013.4 |
| 20260504182203 | 69 | 207 | 4.0 | 6.0 | 0.00 | 0.00 | 0.00 | 47 | 1013.4 |
| 20260504181701 | 68 | 207 | 0.0 | 0.0 | 0.00 | 0.00 | 0.00 | 47 | 1013.3 |
| 20260504181158 | 69 | 207 | 7.0 | 8.0 | 0.00 | 0.00 | 0.00 | 44 | 1013.4 |
| 20260504180657 | 68 | 207 | 1.0 | 2.0 | 0.00 | 0.00 | 0.00 | 49 | 1013.3 |
| 20260504180155 | 67 | 207 | 3.0 | 3.0 | 0.00 | 0.00 | 0.00 | 49 | 1013.6 |
| 20260504175652 | 66 | 207 | 2.0 | 2.0 | 0.00 | 0.00 | 0.00 | 49 | 1013.6 |
| 20260504175149 | 67 | 207 | 2.0 | 2.0 | 0.00 | 0.00 | 0.00 | 49 | 1013.7 |
| 20260504174647 | 68 | 207 | 2.0 | 2.0 | 0.00 | 0.00 | 0.00 | 44 | 1013.7 |
| 20260504174143 | 67 | 207 | 3.0 | 4.0 | 0.00 | 0.00 | 0.00 | 46 | 1013.8 |
| 20260504173641 | 68 | 208 | 0.0 | 1.0 | 0.00 | 0.00 | 0.00 | 45 | 1013.8 |
| 20260504173138 | 67 | 207 | 1.0 | 2.0 | 0.00 | 0.00 | 0.00 | 47 | 1014.1 |
| 20260504172635 | 67 | 207 | 1.0 | 2.0 | 0.00 | 0.00 | 0.00 | 48 | 1014.2 |
| 20260504172131 | 65 | 207 | 1.0 | 1.0 | 0.00 | 0.00 | 0.00 | 52 | 1014.4 |
| 20260504171627 | 65 | 207 | 0.0 | 1.0 | 0.00 | 0.00 | 0.00 | 48 | 1014.3 |
| 20260504171125 | 65 | 207 | 4.0 | 4.0 | 0.00 | 0.00 | 0.00 | 50 | 1014.4 |
| 20260504170621 | 64 | 207 | 2.0 | 3.0 | 0.00 | 0.00 | 0.00 | 48 | 1014.5 |
| 20260504170119 | 64 | 207 | 2.0 | 4.0 | 0.00 | 0.00 | 0.00 | 51 | 1014.5 |
| 20260504151004 | 57 | 207 | 6.0 | 8.0 | 0.00 | 0.00 | 0.00 | 51 | 1015.9 |
| 20260504150501 | 58 | 207 | 4.0 | 4.0 | 0.00 | 0.00 | 0.00 | 50 | 1015.9 |
| 20260504140927 | 57 | 207 | 4.0 | 4.0 | 0.00 | 0.00 | 0.00 | 54 | 1016.1 |
| 20260504140424 | 56 | 207 | 1.0 | 2.0 | 0.00 | 0.00 | 0.00 | 58 | 1016.0 |
| 20260504130349 | 48 | 207 | 1.0 | 1.0 | 0.00 | 0.00 | 0.00 | 85 | 1016.0 |
| 20260504120312 | 39 | 206 | 0.0 | 0.0 | 0.00 | 0.00 | 0.00 | 99 | 1016.1 |
| 20260504110235 | 38 | 206 | 0.0 | 0.0 | 0.00 | 0.00 | 0.00 | 99 | 1016.2 |
| 20260504100159 | 38 | 207 | 0.0 | 0.0 | 0.00 | 0.00 | 0.00 | 99 | 1016.1 |
| 20260504090122 | 41 | 207 | 0.0 | 0.0 | 0.00 | 0.00 | 0.00 | 98 | 1016.1 |
| 20260504081558 | 41 | 206 | 0.0 | 0.0 | 0.00 | 0.00 | 0.00 | 96 | 1016.1 |
| 20260504081054 | 41 | 206 | 0.0 | 0.0 | 0.00 | 0.00 | 0.00 | 96 | 1016.2 |
| 20260504080551 | 42 | 206 | 0.0 | 0.0 | 0.00 | 0.00 | 0.00 | 96 | 1016.1 |